Regional Weather Roundup
Issued by NWS

Home | Current Version | Previous Version | Graphics & Text | Print | Product List | Glossary On
Versions: 1 2 3 4 5 6 7 8 9 10 11 12 13 14 15 16 17 18 19 20 21 22 23 24 25 26 27 28 29 30 31 32 33 34 35 36 37 38 39 40 41 42 43 44 45 46 47 48 49 50
001
ASUS45 KCYS 190010
RWRWY

WYOMING REGIONAL WEATHER ROUNDUP
NATIONAL WEATHER SERVICE CHEYENNE WY
500 PM MST SUN FEB 18 2018

NOTE:  "FAIR" INDICATES FEW OR NO CLOUDS BELOW 12,000 FEET
WITH NO SIGNIFICANT WEATHER AND/OR OBSTRUCTIONS TO VISIBILITY.

WYZ001-190100-
YELLOWSTONE NATIONAL PARK

CITY           SKY/WX    TMP DP  RH WIND       PRES   REMARKS
LK YELLOWSTONE   N/A     16  14  92 CALM      29.42S
6HR MIN TEMP:  16; 6HR MAX TEMP:  24; 6HR PCP:  0.49;

W YELLOWSTONE  NOT AVBL

$$
WYZ002>013-054>058-071-098>099-190100-
NORTHERN WYOMING

CITY           SKY/WX    TMP DP  RH WIND       PRES   REMARKS
JACKSON        MOCLDY    25  15  66 S17       29.44R WCI  12
CODY           LGT SNOW   4  -2  76 N12       29.71F WCI -12
GREYBULL       SNOW       9   6  88 NW12      29.75R VSB 1/4 WCI  -6
6HR MIN TEMP:   9; 6HR MAX TEMP:  12; 6HR PCP: TRACE;

WORLAND        CLOUDY     9   3  77 NW13      29.76R WCI  -7
6HR MIN TEMP:   9; 6HR MAX TEMP:  16; 6HR PCP: TRACE;

SHERIDAN       SNOW       6   3  87 NW10      29.87R VSB 1/2 WCI  -9
6HR MIN TEMP:   6; 6HR MAX TEMP:   8; 6HR PCP:  0.12;

BUFFALO        LGT SNOW   4  -1  80 NW18      29.75R WCI -16
6HR MIN TEMP:   4; 6HR MAX TEMP:   9; 6HR PCP: TRACE;

GILLETTE       LGT SNOW   5   0  79 N21       29.75F VSB 1   WCI -16
6HR MIN TEMP:   5; 6HR MAX TEMP:  10; 6HR PCP:  0.04;

HULETT         LGT SNOW   7   3  85 MISG      29.78R VSB 1
NEWCASTLE      HVY SNOW  14  10  85 NW14G22   29.63F VSB 1/4 WCI  -1

$$
WYZ014>020-022>026-101>103-190100-
CENTRAL WYOMING

CITY           SKY/WX    TMP DP  RH WIND       PRES   REMARKS
BIG PINEY      CLOUDY    25  16  68 N14       29.48R WCI  13
6HR MIN TEMP:  25; 6HR MAX TEMP:  30; 6HR PCP: TRACE;

PINEDALE       CLOUDY    25  14  63 NW12      29.48S WCI  14
DUBOIS         NOT AVBL
LANDER         LGT SNOW  16  12  84 E15       29.56R FOG     WCI   1
6HR MIN TEMP:  16; 6HR MAX TEMP:  34; 6HR PCP:  0.02;

RIVERTON       LGT SNOW  13   8  81 NE16      29.57R VSB 3/4 WCI  -3
6HR MIN TEMP:  13; 6HR MAX TEMP:  28; 6HR PCP:  0.02;

CASPER         LGT SNOW   6   3  87 N17       29.67R FOG     WCI -13
6HR MIN TEMP:   7; 6HR MAX TEMP:  21; 6HR PCP:  0.05;

DOUGLAS        CLOUDY    12   4  70 N18       29.66R WCI  -6
6HR MIN TEMP:  12; 6HR MAX TEMP:  36;


$$
WYZ021-027>030-104>119-190100-
SOUTHERN WYOMING

CITY           SKY/WX    TMP DP  RH WIND       PRES   REMARKS
EVANSTON       HVY SNOW  26  24  92 NW14      29.47R VSB 1/4 WCI  14
6HR MIN TEMP:  26; 6HR MAX TEMP:  39; 6HR PCP:  0.03;

FORT BRIDGER   LGT SNOW  28  28 100 NW9       29.49S WCI  19
ROCK SPRINGS   CLOUDY    29  17  61 N16       29.47R WCI  17
6HR MIN TEMP:  29; 6HR MAX TEMP:  48;

DIXON          CLOUDY    42  24  47 S12G18    29.45F
RAWLINS        CLOUDY    38  26  62 W20G28    29.42S WCI  28
6HR MIN TEMP:  38; 6HR MAX TEMP:  48;

SARATOGA       FAIR      45  18  33 SW22G30   29.43F
LARAMIE        FAIR      43  15  32 SW18      29.45F
6HR MIN TEMP:  43; 6HR MAX TEMP:  50;

CHEYENNE       FAIR      53  14  21 N8        29.47R
6HR MIN TEMP:  53; 6HR MAX TEMP:  60;

TORRINGTON     CLOUDY    22  20  92 NE22      29.62R WCI   6
6HR MIN TEMP:  22; 6HR MAX TEMP:  56;

PINE BLUFFS    FAIR      39  28  65 NE18G25   29.50R WCI  30

$$




USA.gov is the U.S. government's official web portal to all federal, state and local government web resources and services.